Dane County Regional Airport (Madison, WI) (MSN)


Airport Diagram
Current Weather/Forecast (VFR Conditions)
METAR KMSN 260053Z 30003KT 10SM BKN250 28/14 A2994 RMK AO2 SLP130 T02780144
TAF KMSN 252325Z 2600/2624 32005KT P6SM BKN250 FM260200 28003KT P6SM SCT250 FM261500 27007KT P6SM FEW250

All Charts
General
Chart Name Download
AIRPORT DIAGRAM
TAKEOFF MINIMUMS
ALTERNATE MINIMUMS
HOT SPOT
LAHSO

Approaches
Chart Name Download
ILS OR LOC RWY 18
ILS OR LOC RWY 21
ILS OR LOC/DME RWY 36
ILS RWY 36 (SA CAT I)
ILS RWY 18 (SA CAT I - II)
ILS RWY 36 (CAT II - III)
RNAV (GPS) RWY 03
RNAV (GPS) RWY 14
RNAV (GPS) RWY 18
RNAV (GPS) RWY 21
RNAV (GPS) RWY 32
RNAV (GPS) RWY 36
VOR RWY 14
VOR RWY 32
HI-TACAN RWY 18
HI-TACAN RWY 36